344P/Read (1995)

Japanese version
Home page
Updated on December 25, 2016

---------------------------------------------------------------------

* Profile

* Orbital Elements

Epoch 1995 Feb. 12.0 TT = JDT 2449760.5
T 1995 Mar. 1.47123 TT                                  MPCW
q   2.8430549            (2000.0)            P               Q
n   0.09076944     Peri.  140.43047     +0.58522073     -0.80861239
a   4.9035388      Node   273.66823     +0.72775092     +0.55668158
e   0.4202035      Incl.    3.47681     +0.35762451     +0.19039860
P  10.86
From 289 observations 1951 Dec. 1-2016 Oct. 24, mean residual 0".6.

* Magnitudes Graph

        m1 = 5.0 + 5 log d + 25.0 log r

---------------------------------------------------------------------

The orbital elements are published on M.P.E.C. 2016-U66.
The magnitudes graphs are made with Comet for Windows.

---------------------------------------------------------------------

Copyright(C) Seiichi Yoshida (comet@aerith.net). All rights reserved.